| time (UTC) | temp F | wind direction | speed knots | gust knots | rain 1hr in | rain 24hr in | rain mn in | humidity % | barometer mb |
| 20260510130504 | 53 | 305 | 2.6 | 7.0 | 0.00 | 0.00 | 0.00 | 77 | 1018.6 |
| 20260510130004 | 53 | 305 | 2.6 | 7.0 | 0.00 | 0.00 | 0.00 | 77 | 1018.6 |
| 20260510125504 | 53 | 305 | 2.6 | 7.0 | 0.00 | 0.00 | 0.00 | 77 | 1018.6 |
| 20260510125003 | 53 | 305 | 2.6 | 7.0 | 0.00 | 0.00 | 0.00 | 77 | 1018.6 |
| 20260510124504 | 53 | 305 | 2.6 | 7.0 | 0.00 | 0.00 | 0.00 | 76 | 1018.6 |
| 20260510123004 | 53 | 305 | 2.6 | 7.0 | 0.00 | 0.00 | 0.00 | 75 | 1018.7 |
| 20260510122504 | 53 | 305 | 2.6 | 7.0 | 0.00 | 0.00 | 0.00 | 76 | 1018.7 |
| 20260510122004 | 53 | 305 | 2.6 | 7.0 | 0.00 | 0.00 | 0.00 | 76 | 1018.7 |
| 20260510120504 | 53 | 305 | 2.6 | 7.0 | 0.00 | 0.00 | 0.00 | 76 | 1018.7 |
| 20260510120004 | 53 | 305 | 2.6 | 7.0 | 0.00 | 0.00 | 0.00 | 78 | 1018.7 |
| 20260510115504 | 52 | 305 | 2.6 | 7.0 | 0.00 | 0.00 | 0.00 | 78 | 1018.6 |
| 20260510115004 | 52 | 305 | 2.6 | 7.0 | 0.00 | 0.00 | 0.00 | 78 | 1018.6 |
| 20260510114504 | 52 | 305 | 2.6 | 7.0 | 0.00 | 0.00 | 0.00 | 78 | 1018.5 |
| 20260510113504 | 51 | 305 | 2.6 | 7.0 | 0.00 | 0.00 | 0.00 | 81 | 1018.5 |
| 20260510113004 | 50 | 305 | 2.6 | 7.0 | 0.00 | 0.00 | 0.00 | 83 | 1018.4 |
| 20260510112504 | 49 | 305 | 2.6 | 7.0 | 0.00 | 0.00 | 0.00 | 84 | 1018.4 |
| 20260510111504 | 47 | 305 | 2.6 | 7.0 | 0.00 | 0.00 | 0.00 | 88 | 1018.2 |
| 20260510111004 | 47 | 305 | 2.6 | 7.0 | 0.00 | 0.00 | 0.00 | 88 | 1018.1 |
| 20260510110504 | 47 | 305 | 2.6 | 7.0 | 0.00 | 0.00 | 0.00 | 88 | 1018.1 |
| 20260510110005 | 47 | 305 | 2.6 | 7.0 | 0.00 | 0.00 | 0.00 | 88 | 1018.0 |
| 20260510105004 | 47 | 305 | 2.6 | 7.0 | 0.00 | 0.00 | 0.00 | 88 | 1018.1 |
| 20260510104503 | 47 | 305 | 2.6 | 7.0 | 0.00 | 0.00 | 0.00 | 88 | 1018.1 |
| 20260510104004 | 47 | 305 | 2.6 | 7.0 | 0.00 | 0.00 | 0.00 | 88 | 1018.0 |
| 20260510103504 | 46 | 305 | 2.6 | 7.0 | 0.00 | 0.00 | 0.00 | 89 | 1018.0 |
| 20260510103004 | 46 | 305 | 2.6 | 7.0 | 0.00 | 0.00 | 0.00 | 89 | 1018.0 |
| 20260510102503 | 46 | 305 | 2.6 | 7.0 | 0.00 | 0.00 | 0.00 | 89 | 1018.0 |
| 20260510101504 | 46 | 305 | 2.6 | 7.0 | 0.00 | 0.00 | 0.00 | 89 | 1018.0 |
| 20260510100004 | 46 | 305 | 2.6 | 7.0 | 0.00 | 0.00 | 0.00 | 90 | 1018.0 |
| 20260510095504 | 46 | 305 | 2.6 | 7.0 | 0.00 | 0.00 | 0.00 | 90 | 1018.0 |
| 20260510094504 | 45 | 305 | 2.6 | 7.0 | 0.00 | 0.00 | 0.00 | 90 | 1018.0 |
| 20260510094003 | 45 | 305 | 2.6 | 7.0 | 0.00 | 0.00 | 0.00 | 90 | 1017.9 |
| 20260510093004 | 45 | 305 | 2.6 | 7.0 | 0.00 | 0.00 | 0.00 | 90 | 1018.0 |
| 20260510092503 | 45 | 305 | 2.6 | 7.0 | 0.00 | 0.00 | 0.00 | 90 | 1018.0 |
| 20260510092004 | 45 | 305 | 2.6 | 7.0 | 0.00 | 0.00 | 0.00 | 90 | 1018.0 |
| 20260510091504 | 45 | 305 | 2.6 | 7.0 | 0.00 | 0.00 | 0.00 | 90 | 1017.9 |
| 20260510090004 | 46 | 305 | 2.6 | 7.0 | 0.00 | 0.00 | 0.00 | 90 | 1018.0 |
| 20260510085504 | 46 | 305 | 2.6 | 7.0 | 0.00 | 0.00 | 0.00 | 90 | 1017.9 |
| 20260510085004 | 46 | 305 | 2.6 | 7.0 | 0.00 | 0.00 | 0.00 | 90 | 1018.0 |
| 20260510084504 | 46 | 305 | 2.6 | 7.0 | 0.00 | 0.00 | 0.00 | 90 | 1017.9 |
| 20260510083504 | 46 | 305 | 2.6 | 7.0 | 0.00 | 0.00 | 0.00 | 89 | 1018.0 |
| 20260510083004 | 46 | 305 | 2.6 | 7.0 | 0.00 | 0.00 | 0.00 | 89 | 1018.0 |
| 20260510082004 | 46 | 305 | 2.6 | 7.0 | 0.00 | 0.00 | 0.00 | 89 | 1018.0 |
| 20260510081504 | 47 | 305 | 2.6 | 7.0 | 0.00 | 0.00 | 0.00 | 89 | 1018.0 |
| 20260510081005 | 47 | 305 | 2.6 | 7.0 | 0.00 | 0.00 | 0.00 | 89 | 1018.0 |
| 20260510080004 | 47 | 305 | 2.6 | 7.0 | 0.00 | 0.00 | 0.00 | 89 | 1018.0 |
| 20260510075504 | 47 | 305 | 2.6 | 7.0 | 0.00 | 0.00 | 0.00 | 89 | 1018.0 |
| 20260510075004 | 47 | 305 | 2.6 | 7.0 | 0.00 | 0.00 | 0.00 | 89 | 1018.1 |
| 20260510074504 | 47 | 305 | 2.6 | 7.0 | 0.00 | 0.00 | 0.00 | 89 | 1018.1 |
| 20260510074004 | 47 | 305 | 2.6 | 7.0 | 0.00 | 0.00 | 0.00 | 89 | 1018.1 |
| 20260510073004 | 47 | 305 | 2.6 | 7.0 | 0.00 | 0.00 | 0.00 | 89 | 1018.1 |
| 20260510072505 | 47 | 305 | 2.6 | 7.0 | 0.00 | 0.00 | 0.00 | 89 | 1018.1 |
| 20260510071504 | 48 | 305 | 2.6 | 7.0 | 0.00 | 0.00 | 0.00 | 88 | 1018.1 |
| 20260510070504 | 48 | 305 | 2.6 | 7.0 | 0.00 | 0.00 | 0.00 | 87 | 1018.2 |
| 20260510070004 | 49 | 305 | 2.6 | 7.0 | 0.00 | 0.00 | 0.00 | 86 | 1018.2 |
| 20260510065504 | 49 | 305 | 2.6 | 7.0 | 0.00 | 0.00 | 0.00 | 86 | 1018.2 |
| 20260510064504 | 49 | 305 | 2.6 | 7.0 | 0.00 | 0.00 | 0.00 | 86 | 1018.2 |
| 20260510064004 | 49 | 305 | 2.6 | 7.0 | 0.00 | 0.00 | 0.00 | 86 | 1018.2 |
| 20260510063504 | 49 | 305 | 2.6 | 7.0 | 0.00 | 0.00 | 0.00 | 86 | 1018.2 |
| 20260510063004 | 49 | 305 | 2.6 | 7.0 | 0.00 | 0.00 | 0.00 | 86 | 1018.2 |
| 20260510062504 | 49 | 305 | 2.6 | 7.0 | 0.00 | 0.00 | 0.00 | 86 | 1018.2 |
| 20260510062004 | 49 | 305 | 2.6 | 7.0 | 0.00 | 0.00 | 0.00 | 86 | 1018.2 |
| 20260510061504 | 49 | 305 | 2.6 | 7.0 | 0.00 | 0.00 | 0.00 | 86 | 1018.3 |
| 20260510061006 | 49 | 305 | 2.6 | 7.0 | 0.00 | 0.00 | 0.00 | 86 | 1018.2 |
| 20260510060503 | 49 | 305 | 2.6 | 7.0 | 0.00 | 0.00 | 0.00 | 86 | 1018.3 |
| 20260510060004 | 49 | 305 | 2.6 | 7.0 | 0.00 | 0.00 | 0.00 | 86 | 1018.2 |
| 20260510055504 | 48 | 305 | 2.6 | 7.0 | 0.00 | 0.00 | 0.00 | 86 | 1018.2 |
| 20260510055004 | 47 | 305 | 2.6 | 7.0 | 0.00 | 0.00 | 0.00 | 88 | 1018.1 |
| 20260510054503 | 47 | 305 | 2.6 | 7.0 | 0.00 | 0.00 | 0.00 | 89 | 1018.1 |
| 20260510054003 | 47 | 305 | 2.6 | 7.0 | 0.00 | 0.00 | 0.00 | 89 | 1018.0 |
| 20260510053504 | 47 | 305 | 2.6 | 7.0 | 0.00 | 0.00 | 0.00 | 88 | 1018.0 |
| 20260510053004 | 47 | 305 | 2.6 | 7.0 | 0.00 | 0.00 | 0.00 | 88 | 1018.0 |
| 20260510052504 | 47 | 305 | 2.6 | 7.0 | 0.00 | 0.00 | 0.00 | 89 | 1018.0 |
| 20260510052004 | 47 | 305 | 2.6 | 7.0 | 0.00 | 0.00 | 0.00 | 89 | 1018.0 |
| 20260510051504 | 47 | 305 | 2.6 | 7.0 | 0.00 | 0.00 | 0.00 | 88 | 1018.0 |
| 20260510051004 | 47 | 305 | 2.6 | 7.0 | 0.00 | 0.00 | 0.00 | 88 | 1018.0 |
| 20260510050504 | 47 | 305 | 2.6 | 7.0 | 0.00 | 0.00 | 0.00 | 88 | 1018.0 |
| 20260510050004 | 47 | 305 | 2.6 | 7.0 | 0.00 | 0.00 | 0.00 | 88 | 1018.0 |
| 20260510045504 | 47 | 305 | 2.6 | 7.0 | 0.00 | 0.00 | 0.00 | 88 | 1018.0 |
| 20260510045004 | 47 | 305 | 2.6 | 7.0 | 0.00 | 0.00 | 0.00 | 88 | 1018.1 |
| 20260510044504 | 47 | 305 | 2.6 | 7.0 | 0.00 | 0.00 | 0.00 | 88 | 1018.1 |
| 20260510044004 | 47 | 305 | 2.6 | 7.0 | 0.00 | 0.00 | 0.00 | 88 | 1018.1 |
| 20260510043504 | 47 | 305 | 2.6 | 7.0 | 0.00 | 0.00 | 0.00 | 88 | 1018.1 |
| 20260510043004 | 48 | 305 | 2.6 | 7.0 | 0.00 | 0.00 | 0.00 | 88 | 1018.1 |
| 20260510042504 | 48 | 305 | 2.6 | 7.0 | 0.00 | 0.00 | 0.00 | 88 | 1018.1 |
| 20260510042005 | 48 | 305 | 2.6 | 7.0 | 0.00 | 0.00 | 0.00 | 87 | 1018.1 |
| 20260510041504 | 48 | 305 | 2.6 | 7.0 | 0.00 | 0.00 | 0.00 | 87 | 1018.1 |
| 20260510041003 | 48 | 305 | 2.6 | 7.0 | 0.00 | 0.00 | 0.00 | 87 | 1018.1 |
| 20260510040504 | 48 | 305 | 2.6 | 7.0 | 0.00 | 0.00 | 0.00 | 87 | 1018.1 |
| 20260510040004 | 48 | 305 | 2.6 | 7.0 | 0.00 | 0.00 | 0.00 | 87 | 1018.1 |
| 20260510035004 | 48 | 305 | 2.6 | 7.0 | 0.00 | 0.00 | 0.00 | 87 | 1018.1 |
| 20260510034504 | 47 | 305 | 2.6 | 7.0 | 0.00 | 0.00 | 0.00 | 87 | 1018.1 |
| 20260510033504 | 47 | 305 | 2.6 | 7.0 | 0.00 | 0.00 | 0.00 | 88 | 1018.1 |
| 20260510033004 | 47 | 305 | 2.6 | 7.0 | 0.00 | 0.00 | 0.00 | 89 | 1018.1 |
| 20260510032504 | 46 | 305 | 2.6 | 7.0 | 0.00 | 0.00 | 0.00 | 89 | 1018.0 |
| 20260510032004 | 46 | 305 | 2.6 | 7.0 | 0.00 | 0.00 | 0.00 | 89 | 1018.0 |
| 20260510031504 | 46 | 305 | 2.6 | 7.0 | 0.00 | 0.00 | 0.00 | 89 | 1018.0 |
| 20260510031004 | 46 | 305 | 2.6 | 7.0 | 0.00 | 0.00 | 0.00 | 89 | 1018.0 |
| 20260510030504 | 46 | 305 | 2.6 | 7.0 | 0.00 | 0.00 | 0.00 | 88 | 1018.0 |
| 20260510025504 | 47 | 305 | 2.6 | 7.0 | 0.00 | 0.00 | 0.00 | 88 | 1018.0 |
| 20260510025004 | 47 | 305 | 2.6 | 7.0 | 0.00 | 0.00 | 0.00 | 88 | 1018.0 |
| 20260510024504 | 47 | 305 | 2.6 | 7.0 | 0.00 | 0.00 | 0.00 | 88 | 1018.0 |
| 20260510024004 | 47 | 305 | 2.6 | 7.0 | 0.00 | 0.00 | 0.00 | 87 | 1018.0 |
| 20260510023504 | 47 | 305 | 2.6 | 7.0 | 0.00 | 0.00 | 0.00 | 87 | 1018.0 |
| 20260510023004 | 47 | 305 | 2.6 | 7.0 | 0.00 | 0.00 | 0.00 | 86 | 1018.1 |
| 20260510022004 | 48 | 305 | 2.6 | 7.0 | 0.00 | 0.00 | 0.00 | 86 | 1018.1 |
| 20260510021503 | 48 | 305 | 2.6 | 7.0 | 0.00 | 0.00 | 0.00 | 86 | 1018.1 |
| 20260510021004 | 48 | 305 | 2.6 | 7.0 | 0.00 | 0.00 | 0.00 | 86 | 1018.1 |
| 20260510020504 | 48 | 305 | 2.6 | 7.0 | 0.00 | 0.00 | 0.00 | 86 | 1018.1 |
| 20260510020004 | 48 | 305 | 2.6 | 7.0 | 0.00 | 0.00 | 0.00 | 85 | 1018.2 |
| 20260510015504 | 49 | 305 | 2.6 | 7.0 | 0.00 | 0.00 | 0.00 | 85 | 1018.2 |
| 20260510014504 | 49 | 305 | 2.6 | 7.0 | 0.00 | 0.00 | 0.00 | 84 | 1018.2 |
| 20260510014003 | 49 | 305 | 2.6 | 7.0 | 0.00 | 0.00 | 0.00 | 84 | 1018.2 |
| 20260510013503 | 49 | 305 | 2.6 | 7.0 | 0.00 | 0.00 | 0.00 | 84 | 1018.2 |
| 20260510013004 | 49 | 305 | 2.6 | 7.0 | 0.00 | 0.00 | 0.00 | 84 | 1018.2 |
| 20260510012504 | 49 | 305 | 2.6 | 7.0 | 0.00 | 0.00 | 0.00 | 84 | 1018.2 |
| 20260510012004 | 49 | 305 | 2.6 | 7.0 | 0.00 | 0.00 | 0.00 | 84 | 1018.2 |
| 20260510011504 | 49 | 305 | 2.6 | 7.0 | 0.00 | 0.00 | 0.00 | 84 | 1018.2 |
| 20260510011003 | 49 | 305 | 2.6 | 7.0 | 0.00 | 0.00 | 0.00 | 84 | 1018.2 |
| 20260510010003 | 49 | 305 | 2.6 | 7.0 | 0.00 | 0.00 | 0.00 | 84 | 1018.2 |
| 20260510005504 | 49 | 305 | 2.6 | 7.0 | 0.00 | 0.00 | 0.00 | 84 | 1018.3 |
| 20260510005003 | 49 | 305 | 2.6 | 7.0 | 0.00 | 0.00 | 0.00 | 83 | 1018.3 |
| 20260510004504 | 49 | 305 | 2.6 | 7.0 | 0.00 | 0.00 | 0.00 | 83 | 1018.3 |
| 20260510003503 | 49 | 305 | 2.6 | 7.0 | 0.00 | 0.00 | 0.00 | 83 | 1018.3 |
| 20260510003004 | 49 | 305 | 2.6 | 7.0 | 0.00 | 0.00 | 0.00 | 83 | 1018.3 |
| 20260510002504 | 49 | 305 | 2.6 | 7.0 | 0.00 | 0.00 | 0.00 | 83 | 1018.3 |
| 20260510001504 | 50 | 305 | 2.6 | 7.0 | 0.00 | 0.00 | 0.00 | 82 | 1018.3 |
| 20260510000504 | 50 | 305 | 2.6 | 7.0 | 0.00 | 0.00 | 0.00 | 82 | 1018.3 |
| 20260510000004 | 50 | 305 | 2.6 | 7.0 | 0.00 | 0.00 | 0.00 | 82 | 1018.3 |
| 20260509235504 | 50 | 305 | 2.6 | 7.0 | 0.00 | 0.00 | 0.00 | 82 | 1018.3 |
| 20260509235004 | 50 | 305 | 2.6 | 7.0 | 0.00 | 0.00 | 0.00 | 82 | 1018.3 |
| 20260509234004 | 50 | 305 | 2.6 | 7.0 | 0.00 | 0.00 | 0.00 | 81 | 1018.3 |
| 20260509233004 | 50 | 305 | 2.6 | 7.0 | 0.00 | 0.00 | 0.00 | 81 | 1018.3 |
| 20260509232504 | 50 | 305 | 2.6 | 7.0 | 0.00 | 0.00 | 0.00 | 82 | 1018.3 |
| 20260509232003 | 50 | 305 | 2.6 | 7.0 | 0.00 | 0.00 | 0.00 | 82 | 1018.3 |
| 20260509231504 | 50 | 305 | 2.6 | 7.0 | 0.00 | 0.00 | 0.00 | 82 | 1018.3 |
| 20260509231004 | 50 | 305 | 2.6 | 7.0 | 0.00 | 0.00 | 0.00 | 82 | 1018.3 |
| 20260509230504 | 50 | 305 | 2.6 | 7.0 | 0.00 | 0.00 | 0.00 | 82 | 1018.3 |
| 20260509225504 | 50 | 305 | 2.6 | 7.0 | 0.00 | 0.00 | 0.00 | 81 | 1018.3 |
| 20260509225004 | 50 | 305 | 2.6 | 7.0 | 0.00 | 0.00 | 0.00 | 81 | 1018.3 |
| 20260509224504 | 50 | 305 | 2.6 | 7.0 | 0.00 | 0.00 | 0.00 | 81 | 1018.3 |
| 20260509224004 | 50 | 305 | 2.6 | 7.0 | 0.00 | 0.00 | 0.00 | 81 | 1018.3 |
| 20260509223504 | 50 | 305 | 2.6 | 7.0 | 0.00 | 0.00 | 0.00 | 81 | 1018.4 |
| 20260509223004 | 50 | 305 | 2.6 | 7.0 | 0.00 | 0.00 | 0.00 | 81 | 1018.4 |
| 20260509222004 | 50 | 305 | 2.6 | 7.0 | 0.00 | 0.00 | 0.00 | 80 | 1018.4 |
| 20260509221503 | 50 | 305 | 2.6 | 7.0 | 0.00 | 0.00 | 0.00 | 82 | 1018.4 |
| 20260509221004 | 50 | 305 | 2.6 | 7.0 | 0.00 | 0.00 | 0.00 | 82 | 1018.4 |
| 20260509220504 | 50 | 305 | 2.6 | 7.0 | 0.00 | 0.00 | 0.00 | 82 | 1018.3 |
| 20260509220004 | 49 | 305 | 2.6 | 7.0 | 0.00 | 0.00 | 0.00 | 83 | 1018.3 |
| 20260509215504 | 49 | 305 | 2.6 | 7.0 | 0.00 | 0.00 | 0.00 | 84 | 1018.3 |
| 20260509215003 | 49 | 305 | 2.6 | 7.0 | 0.00 | 0.00 | 0.00 | 84 | 1018.3 |
| 20260509214504 | 49 | 305 | 2.6 | 7.0 | 0.00 | 0.00 | 0.00 | 84 | 1018.3 |
| 20260509214004 | 49 | 305 | 2.6 | 7.0 | 0.00 | 0.00 | 0.00 | 84 | 1018.3 |
| 20260509213504 | 49 | 305 | 2.6 | 7.0 | 0.00 | 0.00 | 0.00 | 85 | 1018.3 |
| 20260509213004 | 49 | 305 | 2.6 | 7.0 | 0.00 | 0.00 | 0.00 | 85 | 1018.3 |
| 20260509212504 | 49 | 305 | 2.6 | 7.0 | 0.00 | 0.00 | 0.00 | 86 | 1018.3 |
| 20260509212004 | 49 | 305 | 2.6 | 7.0 | 0.00 | 0.00 | 0.00 | 86 | 1018.3 |
| 20260509211504 | 49 | 305 | 2.6 | 7.0 | 0.00 | 0.00 | 0.00 | 87 | 1018.3 |
| 20260509211004 | 48 | 305 | 2.6 | 7.0 | 0.00 | 0.00 | 0.00 | 87 | 1018.2 |
| 20260509210504 | 48 | 305 | 2.6 | 7.0 | 0.00 | 0.00 | 0.00 | 87 | 1018.2 |
| 20260509205004 | 48 | 305 | 2.6 | 7.0 | 0.00 | 0.00 | 0.00 | 87 | 1018.2 |
| 20260509204504 | 48 | 305 | 2.6 | 7.0 | 0.00 | 0.00 | 0.00 | 87 | 1018.1 |
| 20260509204003 | 48 | 305 | 2.6 | 7.0 | 0.00 | 0.00 | 0.00 | 87 | 1018.1 |
| 20260509203503 | 47 | 305 | 2.6 | 7.0 | 0.00 | 0.00 | 0.00 | 87 | 1018.1 |
| 20260509203004 | 47 | 305 | 2.6 | 7.0 | 0.00 | 0.00 | 0.00 | 87 | 1018.1 |
| 20260509202504 | 48 | 305 | 2.6 | 7.0 | 0.00 | 0.00 | 0.00 | 86 | 1018.1 |
| 20260509202004 | 48 | 305 | 2.6 | 7.0 | 0.00 | 0.00 | 0.00 | 86 | 1018.2 |
| 20260509201503 | 48 | 305 | 2.6 | 7.0 | 0.00 | 0.00 | 0.00 | 87 | 1018.2 |
| 20260509201004 | 48 | 305 | 2.6 | 7.0 | 0.00 | 0.00 | 0.00 | 86 | 1018.1 |
| 20260509200504 | 47 | 305 | 2.6 | 7.0 | 0.00 | 0.00 | 0.00 | 86 | 1018.1 |
| 20260509195504 | 47 | 305 | 2.6 | 7.0 | 0.00 | 0.00 | 0.00 | 87 | 1018.1 |
| 20260509195004 | 47 | 305 | 2.6 | 7.0 | 0.00 | 0.00 | 0.00 | 87 | 1018.1 |
| 20260509194504 | 47 | 305 | 2.6 | 7.0 | 0.00 | 0.00 | 0.00 | 88 | 1018.1 |
| 20260509194004 | 47 | 305 | 2.6 | 7.0 | 0.00 | 0.00 | 0.00 | 87 | 1018.1 |
| 20260509193504 | 47 | 305 | 2.6 | 7.0 | 0.00 | 0.00 | 0.00 | 87 | 1018.1 |
| 20260509193005 | 47 | 305 | 2.6 | 7.0 | 0.00 | 0.00 | 0.00 | 88 | 1018.1 |
| 20260509192504 | 47 | 305 | 2.6 | 7.0 | 0.00 | 0.00 | 0.00 | 88 | 1018.1 |
| 20260509192004 | 47 | 305 | 2.6 | 7.0 | 0.00 | 0.00 | 0.00 | 88 | 1018.1 |
| 20260509191003 | 47 | 305 | 2.6 | 7.0 | 0.00 | 0.00 | 0.00 | 88 | 1018.1 |
| 20260509190004 | 47 | 305 | 2.6 | 7.0 | 0.00 | 0.00 | 0.00 | 88 | 1018.1 |
| 20260509185504 | 47 | 305 | 2.6 | 7.0 | 0.00 | 0.00 | 0.00 | 88 | 1018.1 |
| 20260509185004 | 47 | 305 | 2.6 | 7.0 | 0.00 | 0.00 | 0.00 | 87 | 1018.1 |
| 20260509184503 | 47 | 305 | 2.6 | 7.0 | 0.00 | 0.00 | 0.00 | 87 | 1018.1 |
| 20260509183004 | 47 | 305 | 2.6 | 7.0 | 0.00 | 0.00 | 0.00 | 88 | 1018.1 |
| 20260509182504 | 47 | 305 | 2.6 | 7.0 | 0.00 | 0.00 | 0.00 | 88 | 1018.1 |
| 20260509182004 | 47 | 305 | 2.6 | 7.0 | 0.00 | 0.00 | 0.00 | 88 | 1018.1 |
| 20260509181503 | 47 | 305 | 2.6 | 7.0 | 0.00 | 0.00 | 0.00 | 88 | 1018.1 |
| 20260509181004 | 47 | 305 | 2.6 | 7.0 | 0.00 | 0.00 | 0.00 | 88 | 1018.1 |
| 20260509180503 | 47 | 305 | 2.6 | 7.0 | 0.00 | 0.00 | 0.00 | 88 | 1018.1 |
| 20260509180004 | 47 | 305 | 2.6 | 7.0 | 0.00 | 0.00 | 0.00 | 88 | 1018.0 |
| 20260509175504 | 47 | 305 | 2.6 | 7.0 | 0.00 | 0.00 | 0.00 | 88 | 1018.1 |
| 20260509175004 | 47 | 305 | 2.6 | 7.0 | 0.00 | 0.00 | 0.00 | 89 | 1018.1 |
| 20260509174503 | 47 | 305 | 2.6 | 7.0 | 0.00 | 0.00 | 0.00 | 89 | 1018.1 |
| 20260509174004 | 47 | 305 | 2.6 | 7.0 | 0.00 | 0.00 | 0.00 | 89 | 1018.1 |
| 20260509173504 | 47 | 305 | 2.6 | 7.0 | 0.00 | 0.00 | 0.00 | 89 | 1018.1 |
| 20260509173004 | 47 | 305 | 2.6 | 7.0 | 0.00 | 0.00 | 0.00 | 88 | 1018.1 |
| 20260509172503 | 47 | 305 | 2.6 | 7.0 | 0.00 | 0.00 | 0.00 | 89 | 1018.1 |
| 20260509172004 | 47 | 305 | 2.6 | 7.0 | 0.00 | 0.00 | 0.00 | 89 | 1018.1 |
| 20260509171504 | 47 | 305 | 2.6 | 7.0 | 0.00 | 0.00 | 0.00 | 89 | 1018.1 |
| 20260509171003 | 47 | 305 | 2.6 | 7.0 | 0.00 | 0.00 | 0.00 | 89 | 1018.0 |
| 20260509170504 | 46 | 305 | 2.6 | 7.0 | 0.00 | 0.00 | 0.00 | 89 | 1018.0 |
| 20260509170004 | 46 | 305 | 2.6 | 7.0 | 0.00 | 0.00 | 0.00 | 89 | 1018.1 |
| 20260509165003 | 46 | 305 | 2.6 | 7.0 | 0.00 | 0.00 | 0.00 | 88 | 1018.0 |
| 20260509164504 | 46 | 305 | 2.6 | 7.0 | 0.00 | 0.00 | 0.00 | 88 | 1018.0 |
| 20260509164004 | 46 | 305 | 2.6 | 7.0 | 0.00 | 0.00 | 0.00 | 88 | 1018.1 |
| 20260509163503 | 46 | 305 | 2.6 | 7.0 | 0.00 | 0.00 | 0.00 | 88 | 1018.1 |
| 20260509162504 | 46 | 305 | 2.6 | 7.0 | 0.00 | 0.00 | 0.00 | 88 | 1018.0 |
| 20260509162004 | 46 | 305 | 2.6 | 7.0 | 0.00 | 0.00 | 0.00 | 89 | 1018.0 |
| 20260509161504 | 46 | 305 | 2.6 | 7.0 | 0.00 | 0.00 | 0.00 | 89 | 1018.0 |
| 20260509160504 | 46 | 305 | 2.6 | 7.0 | 0.00 | 0.00 | 0.00 | 88 | 1018.0 |
| 20260509160004 | 46 | 305 | 2.6 | 7.0 | 0.00 | 0.00 | 0.00 | 88 | 1018.0 |
| 20260509155503 | 46 | 305 | 2.6 | 7.0 | 0.00 | 0.00 | 0.00 | 88 | 1018.0 |
| 20260509155004 | 46 | 305 | 2.6 | 7.0 | 0.00 | 0.00 | 0.00 | 89 | 1018.0 |
| 20260509154504 | 46 | 305 | 2.6 | 7.0 | 0.00 | 0.00 | 0.00 | 89 | 1018.0 |
| 20260509154004 | 46 | 305 | 2.6 | 7.0 | 0.00 | 0.00 | 0.00 | 88 | 1018.0 |
| 20260509153504 | 46 | 305 | 2.6 | 7.0 | 0.00 | 0.00 | 0.00 | 89 | 1018.0 |
| 20260509153004 | 45 | 305 | 2.6 | 7.0 | 0.00 | 0.00 | 0.00 | 89 | 1018.0 |
| 20260509152504 | 45 | 305 | 2.6 | 7.0 | 0.00 | 0.00 | 0.00 | 89 | 1018.0 |
| 20260509152003 | 45 | 305 | 2.6 | 7.0 | 0.00 | 0.00 | 0.00 | 89 | 1018.0 |
| 20260509151504 | 45 | 305 | 2.6 | 7.0 | 0.00 | 0.00 | 0.00 | 89 | 1018.0 |
| 20260509151003 | 45 | 305 | 2.6 | 7.0 | 0.00 | 0.00 | 0.00 | 89 | 1017.9 |
| 20260509150004 | 45 | 305 | 2.6 | 7.0 | 0.00 | 0.00 | 0.00 | 89 | 1017.9 |
| 20260509145504 | 45 | 305 | 2.6 | 7.0 | 0.00 | 0.00 | 0.00 | 88 | 1017.9 |
| 20260509145003 | 45 | 305 | 2.6 | 7.0 | 0.00 | 0.00 | 0.00 | 88 | 1017.9 |
| 20260509144504 | 45 | 305 | 2.6 | 7.0 | 0.00 | 0.00 | 0.00 | 88 | 1017.9 |
| 20260509144003 | 45 | 305 | 2.6 | 7.0 | 0.00 | 0.00 | 0.00 | 88 | 1017.9 |
| 20260509143504 | 44 | 305 | 2.6 | 7.0 | 0.00 | 0.00 | 0.00 | 88 | 1017.9 |
| 20260509142503 | 44 | 305 | 2.6 | 7.0 | 0.00 | 0.00 | 0.00 | 88 | 1017.9 |
| 20260509142003 | 44 | 305 | 2.6 | 7.0 | 0.00 | 0.00 | 0.00 | 88 | 1017.9 |
| 20260509141504 | 44 | 305 | 2.6 | 7.0 | 0.00 | 0.00 | 0.00 | 88 | 1017.8 |
| 20260509141004 | 44 | 305 | 2.6 | 7.0 | 0.00 | 0.00 | 0.00 | 88 | 1017.8 |
| 20260509140005 | 44 | 305 | 2.6 | 7.0 | 0.00 | 0.00 | 0.00 | 87 | 1017.8 |
| 20260509135004 | 44 | 305 | 2.6 | 7.0 | 0.00 | 0.00 | 0.00 | 87 | 1017.8 |
| 20260509134504 | 44 | 305 | 2.6 | 7.0 | 0.00 | 0.00 | 0.00 | 87 | 1017.9 |
| 20260509133504 | 44 | 305 | 2.6 | 7.0 | 0.00 | 0.00 | 0.00 | 86 | 1017.9 |
| 20260509133004 | 44 | 305 | 2.6 | 7.0 | 0.00 | 0.00 | 0.00 | 86 | 1017.9 |
| 20260509132503 | 44 | 305 | 2.6 | 7.0 | 0.00 | 0.00 | 0.00 | 87 | 1017.9 |
| 20260509132003 | 44 | 305 | 2.6 | 7.0 | 0.00 | 0.00 | 0.00 | 87 | 1017.9 |
| 20260509131504 | 44 | 305 | 2.6 | 7.0 | 0.00 | 0.00 | 0.00 | 87 | 1017.9 |
| 20260509131004 | 44 | 305 | 2.6 | 7.0 | 0.00 | 0.00 | 0.00 | 88 | 1017.9 |